Regional Weather Roundup
Issued by NWS

Home | Current Version | Previous Version | Text Only | Print | Product List | Glossary Off
Versions: 1 2 3 4 5 6 7 8 9 10 11 12 13 14 15 16 17 18 19 20 21 22 23 24 25 26 27 28 29 30 31 32 33 34 35 36 37 38 39 40 41 42 43 44 45 46 47 48 49 50

000
ASUS43 KTOP 270408
RWRKS

WEATHER ROUNDUP FOR KANSAS
NATIONAL WEATHER SERVICE GOODLAND KS
1100 PM CDT TUE JUL 26 2016

NOTE:  "FAIR" INDICATES FEW OR NO CLOUDS BELOW 12,000 FEET WITH NO
SIGNIFICANT WEATHER AND/OR OBSTRUCTIONS TO VISIBILITY.

KSZ001>006-013>018-027>032-041>047-270500-
NORTHWEST KANSAS

CITY           SKY/WX    TMP DP  RH WIND       PRES   REMARKS
GOODLAND       CLOUDY    69  59  70 S15       30.08S
HAYS           CLEAR     75  63  64 SE6       30.03R
HILL CITY      CLOUDY    79  67  66 S8        30.04R
RUSSELL        CLEAR     76  68  76 SE9       30.02R
$$

KSZ061>065-074>080-084>089-270500-
SOUTHWEST KANSAS

CITY           SKY/WX    TMP DP  RH WIND       PRES   REMARKS
DODGE CITY     CLEAR     73  66  78 E3        30.05R
ELKHART          N/A     77  66  68 SE12        N/A
GARDEN CITY    CLEAR     74  65  73 SE12      30.06R
GREAT BEND     CLEAR     77  66  69 SE7       30.02R
LIBERAL        CLEAR     77  64  65 SE8       30.07R
PRATT          CLEAR     75  67  76 E3        30.03R
$$

KSZ066>073-081>083-090>101-270500-
SOUTHEAST KANSAS

CITY           SKY/WX    TMP DP  RH WIND       PRES   REMARKS
CHANUTE        PTCLDY    75  73  93 SE5       29.98S
COFFEYVILLE    CLOUDY    74  72  93 N6        29.98R
HUTCHINSON     CLEAR     77  71  82 E6        30.00S
NEWTON         CLEAR     76  72  87 E6        30.01S
PARSONS        CLOUDY    74  72  93 CALM      29.99S
WICHITA INTL   PTCLDY    81  72  74 E9        29.98S
WICHITA JABRA  CLEAR     75  72  90 E5        29.99S
WICHITA MCCONL CLEAR     79  72  79 SE8       29.99S
WINFIELD       PTCLDY    77  73  87 E7        29.99R
$$

KSZ007>012-019>026-033>040-048>060-102>105-270500-
NORTHEAST KANSAS

CITY           SKY/WX    TMP DP  RH WIND       PRES   REMARKS
CONCORDIA      CLEAR     72  67  84 SE6       30.01S
EMPORIA        CLEAR     74  70  87 NE3       29.99S
LAWRENCE       CLEAR     73  68  84 E3        29.99F
MANHATTAN      CLEAR     74  69  85 CALM      29.99S HAZE
MARYSVILLE     CLEAR     72  68  88 SE6       30.00F
OLATHE IND     CLEAR     74  69  85 NE3       30.01S
OLATHE EXE     CLEAR     76  67  73 NE5       30.00F
SALINA         CLEAR     79  69  71 SE7       30.00R
TOPEKA BILLARD CLEAR     74  69  85 CALM      29.99F
TOPEKA FORBES  CLEAR     75  70  84 E3        30.00S
$$



USA.gov is the U.S. government's official web portal to all federal, state and local government web resources and services.